Minot, ND

2:01 AM CDT on October 18, 2017 (GMT -0500)
Minot International

Weather History for KMOT - October, 2012

Change the Weather History Date:

Sunday, October 7, 2012

  Actual Average Record
Temperature  
Mean Temperature 47 °F 48 °F  
Max Temperature 56 °F 60 °F 89 °F (1920)
Min Temperature 37 °F 37 °F 17 °F (2000)
Degree Days  
Heating Degree Days 18 17  
Month to date heating degree days 146 107  
Since 1 July heating degree days 356 427  
Cooling Degree Days 0 0  
Month to date cooling degree days 0 0  
Year to date cooling degree days 594 444  
Moisture  
Dew Point 30 °F    
Average Humidity 59    
Maximum Humidity 83    
Minimum Humidity 35    
Precipitation  
Precipitation T in 0.04 in 1.09 in (1959)
Month to date precipitation 1.24 0.31  
Year to date precipitation 12.17 15.21  
Sea Level Pressure  
Sea Level Pressure 29.89 in    
Wind  
Wind Speed 10 mph (WSW)    
Max Wind Speed 18 mph    
Max Gust Speed 23 mph    
Visibility 10 miles    
Events      
T = Trace of Precipitation, MM = Missing Value Source: NWS Daily Summary

Daily Weather History Graph

Daily Weather History Graph

Search for Another Location

Airport or City:

Trip Planner

Search our weather history database for the weather conditions in past years. The results will help you decide how hot, cold, wet, or windy it might be!

Date:

Astronomy

Oct. 07, 2012 Rise Set
Actual Time 7:53 AM CDT 7:10 PM CDT
Civil Twilight 7:22 AM CDT 7:42 PM CDT
Nautical Twilight 6:46 AM CDT 8:18 PM CDT
Astronomical Twilight 6:10 AM CDT 8:54 PM CDT
Moon No Moon Rise 2:51 PM CDT (10/7)
Length of Visible Light 12h 19m
Length of Day
11h 17m
Waning Gibbous, 56% of the Moon is Illuminated
Oct 7
Waning Gibbous
Oct 8
Last Quarter
Oct 15
New
Oct 21
First Quarter
Oct 29
Full

Hourly Weather History & Observations

Time (CDT) Temp. Windchill Dew Point Humidity Pressure Visibility Wind Dir Wind Speed Gust Speed Precip Events Conditions
12:54 AM 37.0 °F 30.4 °F 25.0 °F 62% 30.07 in 10.0 mi SW 9.2 mph - N/A   Partly Cloudy
1:54 AM 37.0 °F 30.4 °F 26.1 °F 65% 30.04 in 10.0 mi SSW 9.2 mph - N/A   Overcast
2:54 AM 37.0 °F 29.8 °F 26.1 °F 65% 30.03 in 10.0 mi SW 10.4 mph - N/A   Mostly Cloudy
3:54 AM 37.9 °F 30.0 °F 27.0 °F 65% 29.99 in 10.0 mi SW 12.7 mph - N/A   Overcast
4:54 AM 39.9 °F 32.5 °F 27.0 °F 60% 29.96 in 10.0 mi SW 12.7 mph - N/A   Overcast
5:54 AM 39.0 °F 31.8 °F 27.0 °F 62% 29.95 in 10.0 mi SW 11.5 mph - N/A   Overcast
6:54 AM 39.0 °F 31.8 °F 27.0 °F 62% 29.94 in 10.0 mi SW 11.5 mph - N/A   Overcast
7:54 AM 37.0 °F 28.9 °F 27.0 °F 67% 29.93 in 10.0 mi SW 12.7 mph - N/A   Partly Cloudy
8:54 AM 37.9 °F 30.0 °F 27.0 °F 65% 29.93 in 10.0 mi WSW 12.7 mph - N/A   Overcast
9:54 AM 41.0 °F 34.3 °F 28.0 °F 60% 29.93 in 10.0 mi West 11.5 mph - N/A   Scattered Clouds
10:54 AM 46.0 °F 40.2 °F 28.0 °F 50% 29.92 in 10.0 mi West 12.7 mph - N/A   Overcast
11:54 AM 48.0 °F - 28.0 °F 46% 29.92 in 10.0 mi WNW 10.4 mph - N/A   Mostly Cloudy
12:54 PM 52.0 °F - 28.9 °F 41% 29.90 in 10.0 mi NW 10.4 mph - N/A   Clear
1:54 PM 53.1 °F - 28.9 °F 40% 29.88 in 10.0 mi WNW 6.9 mph - N/A   Clear
2:54 PM 55.0 °F - 28.9 °F 37% 29.85 in 10.0 mi West 11.5 mph 17.3 mph N/A   Partly Cloudy
3:54 PM 55.0 °F - 30.0 °F 38% 29.82 in 10.0 mi WNW 11.5 mph - N/A   Overcast
4:54 PM 55.0 °F - 28.9 °F 37% 29.81 in 10.0 mi West 13.8 mph - N/A   Overcast
5:54 PM 54.0 °F - 28.0 °F 37% 29.80 in 10.0 mi West 13.8 mph - N/A   Overcast
6:54 PM 52.0 °F - 28.0 °F 40% 29.80 in 10.0 mi West 9.2 mph - N/A   Overcast
7:54 PM 48.0 °F - 35.1 °F 61% 29.80 in 10.0 mi West 11.5 mph - 0.00 in   Overcast
8:54 PM 45.0 °F 40.1 °F 37.9 °F 76% 29.80 in 10.0 mi SW 9.2 mph - 0.00 in   Overcast
9:54 PM 44.1 °F 41.5 °F 39.0 °F 82% 29.77 in 10.0 mi South 4.6 mph - N/A   Overcast
10:54 PM 44.1 °F 40.1 °F 39.0 °F 82% 29.73 in 10.0 mi SSE 6.9 mph - N/A   Overcast
11:54 PM 43.0 °F 40.3 °F 37.9 °F 82% 29.68 in 10.0 mi SE 4.6 mph - N/A   Overcast